星链-36238(STARLINK-36238)

导读

STARLINK-36238(NORAD编号68563)是SpaceX星链(Starlink)卫星星座中的一颗V2 Mini版本通信卫星,隶属于星链低轨宽带互联网星座组网。星链星座是全球规模最大的商业卫星星座,截至2026年3月SpaceX已累计发射超1.16万颗星链卫星,超1万颗仍在轨运行。 作为近地轨道通信卫星,它主要为全球提供高速宽带互联网接入服务,目前Starlink-36238运行在近地轨道,根据SpaceX 2026年安全升级计划,包括该卫星在内的数千颗星链卫星,轨道高度已从550公里逐步降至480公里,以降低碰撞风险、减少太空碎片威胁。

基本信息
目录编号:
68563
目录名称:
STARLINK-36238
国际标识:
2026-070X
轨道中心:
EARTH
卫星名称:
星链-36238
卫星全名:
星链-36238(STARLINK-36238)
卫星状态:
在轨 (已飞行72 天)
发射日期:
2026-04-02 UTC
国别 :
美国 (US)
星等 :
--
轨道信息
数据来源 国际轨道数据
星历时间: 2026-06-11T22:59:45+0800
1天前
查看轨道信息
半长轴: 6840.815km
偏心率: 0.0001145
轨道倾角: 53.159°
近地点辐角 122.173°
升交点赤经 285.062°
平近点角 237.938°
近地点: 461.894km
远地点: 463.462km
周期: 93.847分钟
每日圈数: 15.344085
详细信息
固有亮度:
5
最大亮度:
2.5
卫星平台:
Starlink V1.0
覆盖范围:
全球
运营商:
太空探索技术公司
运营商所在国:
美国
制造商(研发单位):
太空探索技术公司
制造商所在国:
美国
使用方式:
暂无
卫星简介
Starlink 计划是 SpaceX 推出的全球卫星互联网项目,通过发射低轨道卫星,为全球尤其是偏远地区提供高速、低延迟的互联网服务。自 2019 年起,Starlink 已部署数千颗卫星,旨在缩小全球数字鸿沟,推动互联网普及。该项目还为军事、航空等行业提供通信支持,带来广泛经济效益。
2D轨道图
3D轨道图
轨道高度分析图
轨道倾角分析图
轨道综合分析图
查看轨道综合分析图